Location: Eppenbrunn
(49.1158°N, 7.5601°E)
Time: 15:29:29
(UTC+00:00)

IGS 5A - Pass Details

Date: 16 June 2021
Orbit: 583 x 587 km, 97.6° (Epoch: 17 July)

Event Time Altitude Azimuth Distance (km) Brightness Sun altitude
Rises 21:12:34 0° 208° (SSW) 2,805 6.6 -11.2°
Reaches altitude 10° 21:15:23 10° 229° (SW) 1,912 6.0 -11.5°
Maximum altitude 21:18:06 17° 270° (W) 1,524 6.0 -11.7°
Drops below altitude 10° 21:20:49 10° 311° (NW) 1,923 7.4 -11.9°
Sets 21:23:41 0° 332° (NNW) 2,831 9.1 -12.2°
